Time,TemperatureF,DewpointF,PressureIn,WindDirection,WindDirectionDegrees,WindSpeedMPH,WindSpeedGustMPH,Humidity,HourlyPrecipIn,Conditions,Clouds,dailyrainin,SoftwareType,DateUTC
2013-09-24 00:13:00,57.0,48.0,-100.00,ESE,120,7.0,13.0,71,0.00,,,-99.99,,2013-09-24 05:13:00,
2013-09-24 00:22:00,56.0,47.0,-100.00,ESE,105,7.0,12.0,71,0.00,,,-99.99,,2013-09-24 05:22:00,
2013-09-24 00:43:00,56.0,48.0,-100.00,East,95,7.0,14.0,73,0.00,,,-99.99,,2013-09-24 05:43:00,
2013-09-24 01:22:00,54.0,48.0,-100.00,East,85,6.0,7.0,77,0.00,,,-99.99,,2013-09-24 06:22:00,
2013-09-24 01:42:00,54.0,48.0,-100.00,East,90,6.0,9.0,79,0.00,,,-99.99,,2013-09-24 06:42:00,
2013-09-24 02:22:00,54.0,48.0,-100.00,East,100,7.0,9.0,82,0.00,,,-99.99,,2013-09-24 07:22:00,
2013-09-24 02:43:00,53.0,49.0,-100.00,East,85,5.0,9.0,83,0.00,,,-99.99,,2013-09-24 07:43:00,
2013-09-24 03:22:00,53.0,49.0,-100.00,ENE,75,5.0,7.0,87,0.00,,,-99.99,,2013-09-24 08:22:00,
2013-09-24 03:42:00,53.0,49.0,-100.00,ENE,75,4.0,6.0,87,0.00,,,-99.99,,2013-09-24 08:42:00,
2013-09-24 04:21:00,54.0,50.0,-100.00,East,90,5.0,7.0,87,0.00,,,-99.99,,2013-09-24 09:21:00,
2013-09-24 04:43:00,54.0,50.0,-100.00,East,90,4.0,9.0,87,0.00,,,-99.99,,2013-09-24 09:43:00,
2013-09-24 05:23:00,55.0,51.0,-100.00,East,95,6.0,9.0,85,0.00,,,-99.99,,2013-09-24 10:23:00,
2013-09-24 05:42:00,55.0,50.0,-100.00,East,85,6.0,10.0,84,0.00,,,-99.99,,2013-09-24 10:42:00,
2013-09-24 06:22:00,55.0,50.0,-100.00,East,80,6.0,11.0,83,0.00,,,-99.99,,2013-09-24 11:22:00,
2013-09-24 06:42:00,55.0,50.0,-100.00,East,90,6.0,11.0,82,0.00,,,-99.99,,2013-09-24 11:42:00,
2013-09-24 07:12:00,55.0,49.0,-100.00,East,85,7.0,12.0,82,0.00,,,-99.99,,2013-09-24 12:12:00,
2013-09-24 07:22:00,54.0,49.0,-100.00,East,95,6.0,9.0,83,0.00,,,-99.99,,2013-09-24 12:22:00,
2013-09-24 07:42:00,55.0,49.0,-100.00,East,85,5.0,9.0,82,0.00,,,-99.99,,2013-09-24 12:42:00,
2013-09-24 08:22:00,54.0,49.0,-100.00,East,80,5.0,7.0,82,0.00,,,-99.99,,2013-09-24 13:22:00,
2013-09-24 08:42:00,55.0,49.0,-100.00,East,90,3.0,7.0,82,0.00,,,-99.99,,2013-09-24 13:42:00,
2013-09-24 09:21:00,55.0,50.0,-100.00,ENE,60,3.0,5.0,80,0.00,,,-99.99,,2013-09-24 14:21:00,
2013-09-24 09:42:00,56.0,50.0,-100.00,ENE,65,4.0,6.0,80,0.00,,,-99.99,,2013-09-24 14:42:00,
2013-09-24 10:22:00,57.0,50.0,-100.00,East,85,2.0,5.0,76,0.00,,,-99.99,,2013-09-24 15:22:00,
2013-09-24 10:43:00,59.0,50.0,-100.00,ENE,70,4.0,6.0,72,0.00,,,-99.99,,2013-09-24 15:43:00,
2013-09-24 11:23:00,62.0,50.0,-100.00,ESE,105,7.0,11.0,64,0.00,,,-99.99,,2013-09-24 16:23:00,
2013-09-24 11:43:00,62.0,50.0,-100.00,ENE,65,3.0,8.0,65,0.00,,,-99.99,,2013-09-24 16:43:00,
2013-09-24 12:23:00,62.0,50.0,-100.00,ENE,60,3.0,4.0,65,0.00,,,-99.99,,2013-09-24 17:23:00,
2013-09-24 12:43:00,62.0,50.0,-100.00,ENE,70,4.0,6.0,65,0.00,,,-99.99,,2013-09-24 17:43:00,
2013-09-24 13:22:00,65.0,51.0,-100.00,North,0,2.0,6.0,61,0.00,,,-99.99,,2013-09-24 18:22:00,
2013-09-24 13:42:00,65.0,51.0,-100.00,ENE,70,4.0,9.0,60,0.00,,,-99.99,,2013-09-24 18:42:00,
2013-09-24 14:22:00,69.0,52.0,-100.00,ENE,60,7.0,9.0,54,0.00,,,-99.99,,2013-09-24 19:22:00,
2013-09-24 14:42:00,72.0,52.0,-100.00,ENE,65,6.0,10.0,50,0.00,,,-99.99,,2013-09-24 19:42:00,
2013-09-24 15:22:00,73.0,52.0,-100.00,ENE,70,9.0,14.0,46,0.00,,,-99.99,,2013-09-24 20:22:00,
2013-09-24 15:42:00,74.0,52.0,-100.00,East,85,7.0,13.0,46,0.00,,,-99.99,,2013-09-24 20:42:00,
2013-09-24 16:22:00,74.0,52.0,-100.00,ESE,120,9.0,12.0,46,0.00,,,-99.99,,2013-09-24 21:22:00,
2013-09-24 16:43:00,74.0,52.0,-100.00,ESE,110,9.0,13.0,45,0.00,,,-99.99,,2013-09-24 21:43:00,
2013-09-24 17:23:00,72.0,52.0,-100.00,ENE,75,6.0,11.0,48,0.00,,,-99.99,,2013-09-24 22:23:00,
2013-09-24 17:43:00,72.0,52.0,-100.00,East,95,7.0,10.0,48,0.00,,,-99.99,,2013-09-24 22:43:00,
2013-09-24 18:22:00,72.0,52.0,-100.00,SE,125,5.0,7.0,48,0.00,,,-99.99,,2013-09-24 23:22:00,
2013-09-24 18:43:00,72.0,52.0,-100.00,SE,135,4.0,6.0,48,0.00,,,-99.99,,2013-09-24 23:43:00,
2013-09-24 19:22:00,68.0,52.0,-100.00,ENE,75,2.0,3.0,57,0.00,,,-99.99,,2013-09-25 00:22:00,
2013-09-24 19:42:00,66.0,53.0,-100.00,East,85,2.0,4.0,63,0.00,,,-99.99,,2013-09-25 00:42:00,
2013-09-24 20:21:00,63.0,54.0,-100.00,ESE,105,2.0,4.0,72,0.00,,,-99.99,,2013-09-25 01:21:00,
2013-09-24 20:42:00,61.0,53.0,-100.00,SE,125,2.0,3.0,75,0.00,,,-99.99,,2013-09-25 01:42:00,
2013-09-24 21:21:00,60.0,54.0,-100.00,East,100,1.0,2.0,79,0.00,,,-99.99,,2013-09-25 02:21:00,
2013-09-24 21:42:00,59.0,53.0,-100.00,ENE,70,3.0,4.0,82,0.00,,,-99.99,,2013-09-25 02:42:00,
2013-09-24 22:23:00,57.0,53.0,-100.00,ENE,75,2.0,4.0,86,0.00,,,-99.99,,2013-09-25 03:23:00,
2013-09-24 22:44:00,56.0,53.0,-100.00,ENE,75,2.0,3.0,87,0.00,,,-99.99,,2013-09-25 03:44:00,
2013-09-24 23:24:00,54.0,52.0,-100.00,NE,55,1.0,1.0,90,0.00,,,-99.99,,2013-09-25 04:24:00,
2013-09-24 23:43:00,54.0,51.0,-100.00,NE,55,1.0,2.0,91,0.00,,,-99.99,,2013-09-25 04:43:00,